Saginaw, MI

12:31 AM EDT on June 25, 2017 (GMT -0400)
MBS International

Weather History for KMBS - February, 2013

Change the Weather History Date:

Thursday, February 21, 2013

  Actual Average Record
Temperature  
Mean Temperature 18 °F 26 °F  
Max Temperature 21 °F 33 °F 57 °F (2017)
Min Temperature 15 °F 18 °F 1 °F (2008)
Degree Days  
Heating Degree Days 47    
Month to date heating degree days  
Since 1 July heating degree days  
Cooling Degree Days 0    
Month to date cooling degree days  
Year to date cooling degree days  
Moisture  
Dew Point 11 °F    
Average Humidity 72    
Maximum Humidity 89    
Minimum Humidity 65    
Precipitation  
Precipitation 0.00 in 0.07 in 3.99 in (1997)
Month to date precipitation 1.11  
Year to date precipitation 2.82  
Snow  
Snow 0.00 in - - ()
Month to date snowfall  
Since 1 July snowfall  
Snow Depth -    
Sea Level Pressure  
Sea Level Pressure 30.37 in    
Wind  
Wind Speed 10 mph (NE)    
Max Wind Speed 16 mph    
Max Gust Speed -    
Visibility 10 miles    
Events Snow    
T = Trace of Precipitation, MM = Missing Value Source: NWS Daily Summary

Daily Weather History Graph

Daily Weather History Graph

Search for Another Location

Airport or City:

Trip Planner

Search our weather history database for the weather conditions in past years. The results will help you decide how hot, cold, wet, or windy it might be!

Date:

Astronomy

Feb. 21, 2013 Rise Set
Actual Time 7:25 AM EST 6:15 PM EST
Civil Twilight 6:56 AM EST 6:44 PM EST
Nautical Twilight 6:23 AM EST 7:17 PM EST
Astronomical Twilight 5:49 AM EST 7:50 PM EST
Moon 2:24 PM EST (2/21) 4:34 AM EST (2/21)
Length of Visible Light 11h 47m
Length of Day
10h 49m
Waxing Gibbous, 83% of the Moon is Illuminated
Feb 21
Waxing Gibbous
Feb 25
Full
Mar 4
Last Quarter
Mar 11
New
Mar 19
First Quarter

Hourly Weather History & Observations

Time (EST) Temp. Windchill Dew Point Humidity Pressure Visibility Wind Dir Wind Speed Gust Speed Precip Events Conditions
12:53 AM 19.9 °F 8.6 °F 12.0 °F 71% 30.27 in 10.0 mi NNW 10.4 mph - 0.00 in   Overcast
1:53 AM 19.9 °F 8.6 °F 12.0 °F 71% 30.29 in 10.0 mi North 10.4 mph - N/A   Overcast
2:53 AM 19.0 °F 8.2 °F 10.0 °F 68% 30.31 in 10.0 mi North 9.2 mph - 0.00 in   Overcast
3:53 AM 19.0 °F 7.5 °F 10.0 °F 68% 30.31 in 10.0 mi North 10.4 mph - N/A   Overcast
4:53 AM 19.0 °F 8.2 °F 10.0 °F 68% 30.32 in 10.0 mi North 9.2 mph - N/A   Overcast
5:53 AM 18.0 °F 8.7 °F 9.0 °F 68% 30.34 in 10.0 mi North 6.9 mph - N/A   Overcast
6:53 AM 18.0 °F 11.1 °F 10.0 °F 71% 30.37 in 10.0 mi North 4.6 mph - N/A   Overcast
7:53 AM 17.1 °F 8.7 °F 10.0 °F 74% 30.41 in 9.0 mi North 5.8 mph - 0.00 in Snow Light Snow
8:53 AM 17.1 °F 3.6 °F 9.0 °F 71% 30.40 in 10.0 mi NNE 12.7 mph - 0.00 in Snow Light Snow
9:53 AM 16.0 °F 1.7 °F 8.1 °F 71% 30.40 in 10.0 mi NE 13.8 mph - N/A   Overcast
10:53 AM 16.0 °F 3.6 °F 7.0 °F 68% 30.43 in 10.0 mi NE 10.4 mph - N/A   Overcast
11:33 AM 15.8 °F 6.1 °F 6.8 °F 68% 30.39 in 10.0 mi NE 6.9 mph - N/A   Scattered Clouds
11:53 AM 17.1 °F 5.8 °F 7.0 °F 65% 30.43 in 10.0 mi NE 9.2 mph - N/A   Scattered Clouds
12:53 PM 18.0 °F 6.9 °F 8.1 °F 65% 30.43 in 10.0 mi NE 9.2 mph - N/A   Scattered Clouds
1:02 PM 17.6 °F 7.3 °F 8.6 °F 68% 30.39 in 10.0 mi ENE 8.1 mph - N/A   Mostly Cloudy
1:53 PM 18.0 °F 8.7 °F 9.0 °F 68% 30.43 in 10.0 mi NE 6.9 mph - N/A   Mostly Cloudy
2:53 PM 18.0 °F 8.7 °F 9.0 °F 68% 30.41 in 9.0 mi NE 6.9 mph - 0.00 in   Overcast
3:53 PM 19.0 °F 7.5 °F 10.0 °F 68% 30.39 in 10.0 mi ENE 10.4 mph - N/A   Overcast
4:26 PM 19.4 °F 7.9 °F 10.4 °F 68% 30.34 in 10.0 mi ENE 10.4 mph - N/A   Partly Cloudy
4:53 PM 19.0 °F 5.6 °F 10.0 °F 68% 30.39 in 10.0 mi East 13.8 mph - N/A   Clear
5:53 PM 18.0 °F 7.7 °F 10.0 °F 71% 30.43 in 10.0 mi East 8.1 mph - N/A   Clear
6:53 PM 18.0 °F 5.4 °F 10.9 °F 74% 30.41 in 10.0 mi ENE 11.5 mph - N/A   Clear
7:39 PM 19.4 °F 8.6 °F 12.2 °F 74% 30.35 in 10.0 mi ENE 9.2 mph - N/A   Mostly Cloudy
7:53 PM 19.0 °F 10.0 °F 12.9 °F 77% 30.40 in 10.0 mi East 6.9 mph - N/A   Overcast
8:48 PM 19.4 °F 5.5 °F 14.0 °F 80% 30.34 in 10.0 mi East 15.0 mph - N/A   Overcast
8:53 PM 19.9 °F 7.3 °F 14.0 °F 78% 30.38 in 10.0 mi East 12.7 mph - N/A   Overcast
9:53 PM 21.0 °F 7.1 °F 16.0 °F 81% 30.36 in 10.0 mi East 16.1 mph - N/A   Overcast
10:01 PM 21.2 °F 7.8 °F 17.6 °F 86% 30.32 in 10.0 mi East 15.0 mph - N/A   Overcast
10:53 PM 21.9 °F 9.2 °F 18.0 °F 85% 30.35 in 10.0 mi East 13.8 mph - N/A   Overcast
11:53 PM 21.9 °F 11.7 °F 19.0 °F 89% 30.32 in 10.0 mi East 9.2 mph - N/A   Overcast